Satellite-Ground Cal/Val Region Overpasses Predictions

Prediction of Satellite NPP Overpassing Cal/Val Region: PacNW

Region Location: (Latitude: 10.00, Longitude: 139.50) to (Latitude: 22.70, Longitude: 165.60).

Table of predicted overpasses for the next 14.0 days since TLE Epoch: 12/13/2013
Interval Starting Time Starting Location Ending Time Ending Location
1 12/13/2013 15:00:32 ( 22.66, 160.27) 12/13/2013 15:04:07 ( 10.04, 157.26)
2 12/14/2013 02:12:15 ( 19.26, 165.60) 12/14/2013 02:13:13 ( 22.66, 164.75)
3 12/14/2013 03:51:08 ( 10.05, 142.39) 12/14/2013 03:54:34 ( 22.14, 139.51)
4 12/14/2013 14:41:32 ( 22.67, 165.03) 12/14/2013 14:45:07 ( 10.05, 162.02)
5 12/14/2013 16:23:02 ( 22.67, 139.65) 12/14/2013 16:23:12 ( 22.09, 139.51)
6 12/15/2013 03:32:08 ( 10.03, 147.15) 12/15/2013 03:35:43 ( 22.65, 144.14)
7 12/15/2013 16:04:02 ( 22.68, 144.41) 12/15/2013 16:07:38 ( 10.00, 141.39)
8 12/16/2013 03:13:07 ( 10.02, 151.91) 12/16/2013 03:16:42 ( 22.64, 148.90)
9 12/16/2013 15:45:01 ( 22.69, 149.17) 12/16/2013 15:48:37 ( 10.01, 146.14)
10 12/17/2013 02:54:07 ( 10.02, 156.67) 12/17/2013 02:57:43 ( 22.69, 153.64)
11 12/17/2013 15:26:01 ( 22.70, 153.93) 12/17/2013 15:29:37 ( 10.02, 150.90)
12 12/18/2013 02:35:06 ( 10.01, 161.42) 12/18/2013 02:38:42 ( 22.69, 158.40)
13 12/18/2013 15:07:01 ( 22.64, 158.67) 12/18/2013 15:10:36 ( 10.02, 155.66)
14 12/19/2013 02:16:49 ( 12.53, 165.60) 12/19/2013 02:19:42 ( 22.68, 163.15)
15 12/19/2013 03:57:36 ( 10.00, 140.81) 12/19/2013 03:59:11 ( 15.58, 139.51)
16 12/19/2013 14:48:01 ( 22.65, 163.43) 12/19/2013 14:51:36 ( 10.03, 160.42)
17 12/20/2013 03:38:36 ( 10.06, 145.55) 12/20/2013 03:42:11 ( 22.68, 142.54)
18 12/20/2013 14:32:04 ( 11.85, 165.59) 12/20/2013 14:32:35 ( 10.03, 165.17)
19 12/20/2013 16:10:30 ( 22.65, 142.81) 12/20/2013 16:14:05 ( 10.03, 139.80)
20 12/21/2013 03:19:36 ( 10.06, 150.31) 12/21/2013 03:23:11 ( 22.67, 147.29)
21 12/21/2013 15:51:30 ( 22.65, 147.57) 12/21/2013 15:55:05 ( 10.03, 144.56)
22 12/22/2013 03:00:36 ( 10.05, 155.06) 12/22/2013 03:04:11 ( 22.67, 152.05)
23 12/22/2013 15:32:29 ( 22.65, 152.33) 12/22/2013 15:36:04 ( 10.03, 149.31)
24 12/23/2013 02:41:35 ( 10.05, 159.82) 12/23/2013 02:45:10 ( 22.67, 156.81)
25 12/23/2013 15:13:29 ( 22.65, 157.08) 12/23/2013 15:17:04 ( 10.03, 154.07)
26 12/24/2013 02:22:35 ( 10.05, 164.58) 12/24/2013 02:26:10 ( 22.67, 161.56)
27 12/24/2013 14:54:28 ( 22.65, 161.84) 12/24/2013 14:58:03 ( 10.03, 158.83)
28 12/25/2013 03:45:04 ( 10.06, 143.96) 12/25/2013 03:48:39 ( 22.68, 140.95)
29 12/25/2013 14:36:37 ( 18.60, 165.60) 12/25/2013 14:39:03 ( 10.03, 163.58)
30 12/25/2013 16:16:58 ( 22.65, 141.22) 12/25/2013 16:18:58 ( 15.61, 139.50)
31 12/26/2013 03:26:03 ( 10.00, 148.73) 12/26/2013 03:29:39 ( 22.68, 145.70)
32 12/26/2013 15:57:57 ( 22.64, 145.97) 12/26/2013 16:01:32 ( 10.02, 142.96)


NCC Satellite Cal/Val Overpasses Prediction Service
